Weather History for Bryce Canyon, UT

Change the Weather History Date:

Wednesday, September 26, 2012

  Actual Average Record
Temperature  
Mean Temperature 48 °F -  
Max Temperature 64 °F 65 °F 80 °F (2003)
Min Temperature 33 °F 34 °F 18 °F (1970)
Degree Days  
Heating Degree Days 18    
Moisture  
Dew Point 35 °F    
Average Humidity 66    
Maximum Humidity 96    
Minimum Humidity 32    
Precipitation  
Precipitation 0.00 in - - ()
Sea Level Pressure  
Sea Level Pressure 29.99 in    
Wind  
Wind Speed 5 mph (WNW)    
Max Wind Speed 13 mph    
Max Gust Speed -    
Visibility 10 miles    
Events      
Averages and records for this station are not official NWS values.
T = Trace of Precipitation, MM = Missing Value Source: NWS Daily Summary

Daily Weather History Graph

Daily Weather History Graph

Search for Another Location

Airport:

Trip Planner

Search our weather history database for the weather conditions in past years. The results will help you decide how hot, cold, wet, or windy it might be!

Date:

Astronomy

Sep. 26, 2012 Rise Set
Actual Time 7:20 AM MDT 7:18 PM MDT
Civil Twilight 6:54 AM MDT 7:44 PM MDT
Nautical Twilight 6:23 AM MDT 8:14 PM MDT
Astronomical Twilight 5:52 AM MDT 8:45 PM MDT
Moon 5:17 PM MDT (9/26) 3:53 AM MDT (9/26)
Length of Visible Light 12h 50m
Length of Day
11h 58m
Waxing Gibbous, 88% of the Moon is Illuminated
Sep 26
Waxing Gibbous
Sep 29
Full
Oct 8
Last Quarter
Oct 15
New
Oct 21
First Quarter

Hourly Weather History & Observations

Time (MDT) Temp. Windchill Dew Point Humidity Pressure Visibility Wind Dir Wind Speed Gust Speed Precip Events Conditions
12:53 AM 37.9 °F 33.5 °F 34.0 °F 86% 29.97 in 10.0 mi WNW 5.8 mph - N/A   Clear
2:53 AM 36.0 °F 29.6 °F 34.0 °F 93% 29.95 in 10.0 mi West 8.1 mph - N/A   Clear
3:53 AM 34.0 °F 28.8 °F 32.0 °F 92% 29.96 in 10.0 mi NW 5.8 mph - N/A   Clear
4:53 AM 33.1 °F - 30.9 °F 92% 29.97 in 10.0 mi Calm Calm - N/A   Clear
5:53 AM 33.1 °F 30.0 °F 32.0 °F 96% 29.97 in 10.0 mi West 3.5 mph - N/A   Clear
6:53 AM 33.1 °F 27.7 °F 30.9 °F 92% 30.00 in 10.0 mi West 5.8 mph - N/A   Clear
7:53 AM 33.1 °F 27.7 °F 32.0 °F 96% 30.02 in 10.0 mi West 5.8 mph - N/A   Clear
8:53 AM 42.1 °F 40.2 °F 37.0 °F 82% 30.00 in 10.0 mi WNW 3.5 mph - N/A   Clear
9:53 AM 48.0 °F - 37.9 °F 68% 29.99 in 10.0 mi North 3.5 mph - N/A   Clear
10:53 AM 55.0 °F - 37.9 °F 53% 29.99 in 10.0 mi NE 11.5 mph - N/A   Clear
11:53 AM 57.9 °F - 35.1 °F 42% 29.97 in 10.0 mi Variable 3.5 mph - N/A   Clear
12:53 PM 57.0 °F - 36.0 °F 45% 29.98 in 10.0 mi West 5.8 mph - N/A   Overcast
1:53 PM 57.9 °F - 35.1 °F 42% 29.98 in 10.0 mi WNW 12.7 mph - N/A   Mostly Cloudy
2:53 PM 59.0 °F - 34.0 °F 39% 29.97 in 10.0 mi NNW 5.8 mph - N/A   Clear
3:53 PM 62.1 °F - 32.0 °F 32% 29.96 in 10.0 mi Variable 3.5 mph - N/A   Partly Cloudy
4:53 PM 61.0 °F - 36.0 °F 39% 29.98 in 10.0 mi East 6.9 mph - N/A   Partly Cloudy
5:53 PM 61.0 °F - 32.0 °F 34% 29.98 in 10.0 mi Calm Calm - N/A   Partly Cloudy
6:53 PM 57.9 °F - 34.0 °F 41% 30.00 in 10.0 mi WSW 4.6 mph - N/A   Mostly Cloudy
7:53 PM 55.9 °F - 37.0 °F 49% 30.03 in 10.0 mi Calm Calm - N/A   Overcast
8:53 PM 54.0 °F - 37.9 °F 55% 30.02 in 10.0 mi NNW 3.5 mph - N/A   Mostly Cloudy
9:53 PM 46.0 °F 41.9 °F 37.9 °F 73% 30.04 in 10.0 mi West 8.1 mph - N/A   Clear
10:53 PM 42.1 °F - 37.0 °F 82% 30.04 in 10.0 mi Calm Calm - N/A   Clear
11:53 PM 41.0 °F 38.0 °F 37.0 °F 86% 30.04 in 10.0 mi West 4.6 mph - N/A   Clear